Location: Les Jeannots
(43.2262°N, 5.5774°E)
Time: 02:10:55
(UTC+00:00)

Cosmos 967 Rocket - Pass Details

Date: 05 July 2020
Orbit: 946 x 992 km, 65.8° (Epoch: 04 August)

Event Time Altitude Azimuth Distance (km) Brightness Sun altitude
Exits shadow 21:55:33 13° 209° (SSW) 2,531 6.3 -19.7°
Maximum altitude 22:01:25 87° 121° (ESE) 999 4.5 -20.1°
Drops below altitude 10° 22:07:55 10° 33° (NNE) 2,758 7.3 -20.6°
Sets 22:10:29 0° 34° (NNE) 3,707 8.0 -20.8°
